KB7STN Weather Reports


time (UTC)temp
F
wind
direction
speed
knots
gust
knots
rain 1hr
in
rain 24hr
in
rain mn
in
humidity
%
barometer
mb
20260503211721 74 209 3.5 7.0 0.00 0.00 0.00 17 1002.1
20260503211221 74 204 2.6 6.1 0.00 0.00 0.00 17 1002.2
20260503210721 74 172 3.5 6.1 0.00 0.00 0.00 16 1002.4
20260503210221 74 176 3.5 6.1 0.00 0.00 0.00 17 1002.4
20260503205721 74 215 4.3 7.8 0.00 0.00 0.00 16 1002.5
20260503205221 74 188 4.3 8.7 0.00 0.00 0.00 16 1002.6
20260503204721 75 151 3.5 9.6 0.00 0.00 0.00 15 1002.6
20260503204221 75 163 2.6 5.2 0.00 0.00 0.00 17 1002.8
20260503203721 75 184 2.6 7.0 0.00 0.00 0.00 17 1002.8
20260503203221 75 217 2.6 4.3 0.00 0.00 0.00 18 1002.9
20260503202721 75 159 2.6 6.1 0.00 0.00 0.00 17 1003.0
20260503202221 75 214 1.7 7.0 0.00 0.00 0.00 17 1003.2
20260503201721 74 190 2.6 5.2 0.00 0.00 0.00 18 1003.3
20260503201221 74 205 2.6 5.2 0.00 0.00 0.00 17 1003.3
20260503200721 74 209 2.6 7.0 0.00 0.00 0.00 15 1003.5
20260503200221 74 202 2.6 4.3 0.00 0.00 0.00 15 1003.5
20260503195721 74 196 2.6 5.2 0.00 0.00 0.00 18 1003.6
20260503195221 74 164 2.6 6.1 0.00 0.00 0.00 18 1003.7
20260503194721 75 168 2.6 6.1 0.00 0.00 0.00 18 1003.8
20260503194221 74 196 1.7 6.1 0.00 0.00 0.00 19 1003.8
20260503193721 75 157 1.7 7.0 0.00 0.00 0.00 18 1003.9
20260503193221 74 215 1.7 6.1 0.00 0.00 0.00 19 1004.0
20260503192723 75 182 1.7 5.2 0.00 0.00 0.00 16 1004.0
20260503192221 74 175 0.9 6.1 0.00 0.00 0.00 19 1004.1
20260503191721 74 242 0.9 6.1 0.00 0.00 0.00 19 1004.1
20260503191221 73 242 0.9 5.2 0.00 0.00 0.00 21 1004.1
20260503190721 73 242 0.9 2.6 0.00 0.00 0.00 18 1004.4
20260503190221 72 242 0.9 5.2 0.00 0.00 0.00 21 1004.4
20260503185721 72 242 0.9 5.2 0.00 0.00 0.00 23 1004.5
20260503185221 71 242 0.9 2.6 0.00 0.00 0.00 23 1004.7
20260503184721 71 242 0.9 4.3 0.00 0.00 0.00 20 1004.7
20260503184221 72 242 0.9 2.6 0.00 0.00 0.00 23 1004.8
20260503183721 71 242 0.9 3.5 0.00 0.00 0.00 24 1004.8
20260503183221 71 242 0.9 5.2 0.00 0.00 0.00 21 1004.9
20260503182721 70 242 0.9 5.2 0.00 0.00 0.00 23 1004.9
20260503182221 70 242 0.9 3.5 0.00 0.00 0.00 23 1005.0
20260503181721 70 242 1.7 4.3 0.00 0.00 0.00 23 1005.1
20260503181221 70 242 1.7 7.0 0.00 0.00 0.00 23 1005.2
20260503180721 69 247 1.7 4.3 0.00 0.00 0.00 24 1005.2
20260503180221 69 246 1.7 4.3 0.00 0.00 0.00 24 1005.2
20260503175722 68 248 1.7 6.1 0.00 0.00 0.00 25 1005.3
20260503175221 68 248 1.7 4.3 0.00 0.00 0.00 23 1005.3
20260503174721 69 248 1.7 4.3 0.00 0.00 0.00 21 1005.4
20260503174222 69 253 1.7 5.2 0.00 0.00 0.00 23 1005.4
20260503173722 69 192 1.7 6.1 0.00 0.00 0.00 22 1005.4
20260503173221 69 240 1.7 5.2 0.00 0.00 0.00 21 1005.5
20260503172721 69 241 0.9 3.5 0.00 0.00 0.00 22 1005.6
20260503172221 69 242 1.7 4.3 0.00 0.00 0.00 23 1005.7
20260503171722 69 251 0.9 4.3 0.00 0.00 0.00 22 1005.8
20260503171222 69 260 0.9 5.2 0.00 0.00 0.00 21 1005.7
20260503170721 68 249 0.9 6.1 0.00 0.00 0.00 23 1005.9
20260503170222 68 210 0.9 5.2 0.00 0.00 0.00 24 1006.0
20260503150722 61 32 0.0 0.0 0.00 0.00 0.00 37 1006.5
20260503150222 61 32 0.0 0.0 0.00 0.00 0.00 36 1006.5
20260503140222 57 32 0.0 0.0 0.00 0.00 0.00 36 1006.6
20260503131222 51 32 0.0 0.0 0.00 0.00 0.00 38 1006.4
20260503130722 51 32 0.0 0.0 0.00 0.00 0.00 40 1006.3
20260503130222 51 32 0.0 0.0 0.00 0.00 0.00 39 1006.4
20260503120222 50 32 0.0 0.0 0.00 0.00 0.00 39 1006.5
20260503110722 51 32 0.0 0.0 0.00 0.00 0.00 39 1007.1
20260503110222 51 32 0.0 0.0 0.00 0.00 0.00 38 1007.1
20260503100222 51 32 0.0 0.0 0.00 0.00 0.00 37 1006.9
20260503090222 54 32 0.0 0.0 0.00 0.00 0.00 33 1006.9
20260503081222 54 32 0.0 0.0 0.00 0.00 0.00 32 1007.2
20260503080722 54 32 0.0 0.0 0.00 0.00 0.00 32 1007.3
20260503080222 54 32 0.0 0.0 0.00 0.00 0.00 32 1007.4
20260503072723 53 32 0.0 0.0 0.00 0.00 0.00 35 1007.6
20260503072223 54 32 0.0 0.0 0.00 0.00 0.00 35 1007.7
20260503071723 54 32 0.0 0.0 0.00 0.00 0.00 35 1007.7
20260503071223 54 32 0.0 0.0 0.00 0.00 0.00 32 1007.6
20260503070723 55 32 0.0 0.0 0.00 0.00 0.00 32 1007.6
20260503070223 55 32 0.0 0.0 0.00 0.00 0.00 31 1007.6
20260503060223 54 32 0.0 0.0 0.00 0.00 0.00 33 1007.6
20260503054723 55 32 0.0 0.0 0.00 0.00 0.00 34 1007.7
20260503054223 55 32 0.0 0.0 0.00 0.00 0.00 33 1007.6
20260503053723 55 32 0.0 0.0 0.00 0.00 0.00 33 1007.7
20260503053223 55 32 0.0 0.0 0.00 0.00 0.00 32 1007.7
20260503052723 55 32 0.0 0.0 0.00 0.00 0.00 32 1007.6
20260503052223 55 32 0.0 0.0 0.00 0.00 0.00 32 1007.6
20260503051723 55 32 0.0 0.0 0.00 0.00 0.00 32 1007.6
20260503051223 55 32 0.0 0.0 0.00 0.00 0.00 32 1007.7
20260503050723 55 32 0.0 0.0 0.00 0.00 0.00 32 1007.6
20260503050223 55 32 0.0 0.0 0.00 0.00 0.00 32 1007.7
20260503045723 56 32 0.0 0.0 0.00 0.00 0.00 32 1007.8
20260503045223 56 32 0.0 0.0 0.00 0.00 0.00 32 1007.8
20260503044723 56 32 0.0 0.0 0.00 0.00 0.00 32 1007.8
20260503044223 56 32 0.0 0.0 0.00 0.00 0.00 32 1007.8
20260503043723 56 32 0.0 0.0 0.00 0.00 0.00 32 1007.8
20260503043223 56 32 0.0 0.0 0.00 0.00 0.00 32 1007.9
20260503042723 56 32 0.0 0.0 0.00 0.00 0.00 32 1007.9
20260503042223 56 32 0.0 0.0 0.00 0.00 0.00 31 1007.9
20260503041723 57 32 0.0 0.0 0.00 0.00 0.00 31 1007.9
20260503041223 57 32 0.0 0.0 0.00 0.00 0.00 32 1007.8
20260503040723 57 32 0.0 0.0 0.00 0.00 0.00 30 1007.9
20260503040223 57 32 0.0 0.0 0.00 0.00 0.00 30 1007.8
20260503035723 57 32 0.0 0.0 0.00 0.00 0.00 30 1007.8
20260503035223 58 32 0.0 0.0 0.00 0.00 0.00 31 1007.7
20260503034723 58 32 0.0 0.0 0.00 0.00 0.00 31 1007.7
20260503034223 58 32 0.0 0.0 0.00 0.00 0.00 30 1007.7
20260503033723 58 32 0.0 0.0 0.00 0.00 0.00 30 1007.7
20260503033223 59 32 0.0 0.0 0.00 0.00 0.00 29 1007.7
20260503032723 59 32 0.0 0.0 0.00 0.00 0.00 29 1007.6
20260503032223 59 32 0.0 0.0 0.00 0.00 0.00 29 1007.6
20260503031723 59 32 0.0 0.0 0.00 0.00 0.00 29 1007.6
20260503031223 59 32 0.0 0.0 0.00 0.00 0.00 31 1007.5
20260503030723 59 32 0.0 0.0 0.00 0.00 0.00 29 1007.5
20260503030223 60 32 0.0 0.0 0.00 0.00 0.00 28 1007.5
20260503025723 60 32 0.0 0.0 0.00 0.00 0.00 28 1007.5
20260503025223 61 32 0.0 0.0 0.00 0.00 0.00 28 1007.5
20260503024723 61 32 0.0 0.0 0.00 0.00 0.00 26 1007.5
20260503024223 61 32 0.0 0.0 0.00 0.00 0.00 26 1007.5
20260503023723 62 32 0.0 0.0 0.00 0.00 0.00 26 1007.5
20260503023223 62 32 0.0 0.0 0.00 0.00 0.00 26 1007.5
20260503022723 63 32 0.0 0.0 0.00 0.00 0.00 26 1007.4
20260503022223 63 32 0.0 0.0 0.00 0.00 0.00 24 1007.4
20260503021723 63 32 0.0 0.0 0.00 0.00 0.00 25 1007.4
20260503021223 64 32 0.0 3.5 0.00 0.00 0.00 24 1007.3
20260503020723 64 32 0.0 2.6 0.00 0.00 0.00 24 1007.4
20260503020223 64 32 0.0 2.6 0.00 0.00 0.00 24 1007.3
20260503015723 65 32 0.0 0.0 0.00 0.00 0.00 23 1007.3
20260503015223 65 32 0.0 0.9 0.00 0.00 0.00 23 1007.3
20260503014723 65 32 0.9 1.7 0.00 0.00 0.00 22 1007.3
20260503014223 66 32 0.9 4.3 0.00 0.00 0.00 22 1007.3
20260503013723 66 14 0.9 4.3 0.00 0.00 0.00 22 1007.3
20260503013223 67 13 0.9 5.2 0.00 0.00 0.00 22 1007.3
20260503012723 67 42 0.9 3.5 0.00 0.00 0.00 22 1007.3
20260503012223 67 42 0.9 2.6 0.00 0.00 0.00 21 1007.2
20260503011723 68 42 1.7 4.3 0.00 0.00 0.00 21 1007.2
20260503011223 68 31 0.9 5.2 0.00 0.00 0.00 21 1007.2
20260503010723 68 38 0.9 3.5 0.00 0.00 0.00 21 1007.1
20260503010223 69 40 0.9 6.1 0.00 0.00 0.00 19 1007.1
20260503005723 69 55 0.9 2.6 0.00 0.00 0.00 20 1007.2
20260503005223 69 78 0.9 5.2 0.00 0.00 0.00 20 1007.2
20260503004723 69 97 0.0 4.3 0.00 0.00 0.00 19 1007.3
20260503004223 69 100 0.0 2.6 0.00 0.00 0.00 18 1007.2
20260503003723 70 100 0.0 2.6 0.00 0.00 0.00 17 1007.2
20260503003223 70 101 0.0 2.6 0.00 0.00 0.00 16 1007.2
20260503002723 70 102 0.0 0.0 0.00 0.00 0.00 16 1007.2
20260503002223 70 102 0.0 1.7 0.00 0.00 0.00 16 1007.3
20260503001723 70 103 0.0 2.6 0.00 0.00 0.00 16 1007.2
20260503001223 70 99 0.0 4.3 0.00 0.00 0.00 16 1007.2
20260503000723 71 101 0.9 0.9 0.00 0.00 0.00 17 1007.3
20260503000225 71 101 0.9 4.3 0.00 0.00 0.00 15 1007.3
20260502235724 71 86 0.9 6.1 0.00 0.00 0.00 15 1007.4
20260502235223 71 136 0.9 4.3 0.00 0.00 0.00 15 1007.4
20260502234723 72 132 0.0 4.3 0.00 0.00 0.00 15 1007.5
20260502234223 72 150 0.0 1.7 0.00 0.00 0.00 17 1007.4
20260502233723 71 149 0.9 1.7 0.00 0.00 0.00 17 1007.4
20260502233223 71 151 1.7 5.2 0.00 0.00 0.00 16 1007.5
20260502232723 71 190 1.7 3.5 0.00 0.00 0.00 16 1007.4
20260502232223 71 180 1.7 5.2 0.00 0.00 0.00 17 1007.5
20260502231723 71 173 1.7 5.2 0.00 0.00 0.00 17 1007.6
20260502231223 71 167 1.7 5.2 0.00 0.00 0.00 18 1007.6
20260502230723 71 160 1.7 4.3 0.00 0.00 0.00 18 1007.6
20260502230223 71 153 1.7 6.1 0.00 0.00 0.00 17 1007.7
20260502225723 71 160 2.6 7.0 0.00 0.00 0.00 18 1007.7
20260502225223 71 164 1.7 6.1 0.00 0.00 0.00 18 1007.8
20260502224723 71 209 2.6 7.0 0.00 0.00 0.00 18 1007.8
20260502224223 71 198 1.7 4.3 0.00 0.00 0.00 19 1007.9
20260502223723 71 202 0.9 5.2 0.00 0.00 0.00 18 1008.1
20260502223223 71 188 0.9 2.6 0.00 0.00 0.00 18 1008.2
20260502222723 71 188 0.9 3.5 0.00 0.00 0.00 18 1008.3
20260502222223 71 202 0.9 3.5 0.00 0.00 0.00 19 1008.4
20260502221723 71 200 1.7 6.1 0.00 0.00 0.00 18 1008.5
20260502221223 71 161 0.9 5.2 0.00 0.00 0.00 18 1008.5
20260502220723 71 153 0.9 5.2 0.00 0.00 0.00 18 1008.7
20260502220223 70 196 1.7 3.5 0.00 0.00 0.00 19 1008.8
20260502215724 70 196 1.7 4.3 0.00 0.00 0.00 19 1008.8
20260502215223 71 175 2.6 6.1 0.00 0.00 0.00 19 1009.0
20260502214723 71 197 2.6 5.2 0.00 0.00 0.00 18 1009.1
20260502214223 70 174 2.6 6.1 0.00 0.00 0.00 17 1009.1
20260502213724 70 102 2.6 6.1 0.00 0.00 0.00 16 1009.1
20260502213223 70 171 3.5 7.0 0.00 0.00 0.00 17 1009.4
20260502212723 70 161 2.6 9.6 0.00 0.00 0.00 18 1009.4
20260502212224 70 222 3.5 7.0 0.00 0.00 0.00 16 1009.6